Tracking 26544 objects as of 9-Dec-2022
HD Live streaming from Space Station
objects crossing your sky now

STARLINK-5165

Track STARLINK-5165 now!
10-day predictions
STARLINK-5165 is classified as:


NORAD ID: 54081
Int'l Code: 2022-136AG
Perigee: 419.2 km
Apogee: 420.8 km
Inclination: 53.2 °
Period: 92.8 minutes
Semi major axis: 6790 km
RCS: Unknown
Launch date: October 20, 2022
Source: United States (US)
Launch site: AIR FORCE EASTERN TEST RANGE (AFETR)
aabbcc
Your satellite tracking list
Your tracking list is empty




NASA's NSSDC Master Catalog

Two Line Element Set (TLE):
1 54081U 22136AG  22343.00001157 -.01139162  00000-0 -21151-1 0  9996
2 54081  53.2172 264.1768 0001163  84.7359 299.1833 15.51328277  8274
Source of the keplerian elements: AFSPC